CZ-2F DEB, 67718

Orbit data source: Space-Track

CZ-2F DEB, 67718 is space debris in LEO originally from a launch on Sat, 07 Feb 2026 UTC launched from the Jiuquan Satellite Launch Center, China (JSC). Debris objects in space refer to the collection of defunct objects orbiting the Earth. Examples of debris include non-operational satellites, rocket bodies, and fragments generated from explosions, collisions, or faulty payload assembly.

Loading next visibility...
Identifier
67718, 2026-024E
Orbit
LEO
Country
Flag of CNCN / PRC
Related business
Manufacturer
CALT?
Mission
Spacecraft
Bus & Motor
Unknown
Mass
1 kg wet, 1 kg dry
Launch date (UTC)
2026-02-07 (2 months ago)
Launch vehicle
Unknown
Launch site
Jiuquan Satellite Launch Center, China (JSC)
Object type
Payload
Rocket body
Debris
Shape & HBR
Unknown shape, 1.1 m
Radar Cross Section
RCS unknown

Expand to show TLE details & history
Last TLE update: 3 days ago

TLE from 3 days ago
0 CZ-2F DEB
1 67718U 26024E   26097.58010940  .00420466  00000-0  46745-2 0  9994
2 67718  50.3141 234.6074 0168678  35.6225 325.5865 15.45852152  9078
Epoch: 2026-04-07T13:55Z
TLE epoch observation values (Epoch: 2026-04-07T13:55:21.452Z)
Latitude
0.00002°
Longitude
-170.08676°
Altitude
335.381 km
Speed
7.762 km/s
True Right ascension
15h 38m 25s
True Declination
0° 00' 00"
Sunlit
Object was in full shadow at epoch
Visualization orbit readout
Latitude
Unknown
Longitude
Unknown
Altitude
Unknown
Speed
Unknown
Apparent Right ascension
Unknown
Apparent Declination
Unknown
Sunlit
N/A
Visualization observer readout
Local Sidereal Time
01:48:09
Azimuth
Unknown
Elevation
Unknown
Doppler factor
Unknown
Orbital elements
Apogee altitude
544.434 km
Perigee altitude
314.771 km
Semi-major axis
6,807.739 km
Eccentricity
0.01687
Inclination
50.3141°
RAAN
234.6074°
Arg. of periapsis
35.6225°
True anomaly
324.47484°
Mean anomaly
325.5865°
Eccentric anomaly
325.03262°
Mean motion
3.86401 °/min
Orbital period
93.17 mins
BSTAR
0.0046745
Loading maneuver chart data...
Computing Atmospheric mass density...
Loading historical data...
Loading historical data...
Loading historical data...
Loading historical data...
Loading historical data...
Loading historical data...
Loading historical data...

Documentation

Showing up to 5 results
|